Snowfall_Accumulation
0.0 0.0 0.0 0.0 0.0 0.0 0.0 0.0 0.0 0.0 0.0 0.0 0.0 0.0 0.0 0.0 0.0 0.0 0.0 0.0 0.0 0.0 0.0 0.0 0.0 0.0 0.0 0.0 0.0 0.0 0.0 0.0 0.0 0.0 0.0 0.0 0.0 0.0 0.0 0.0 0.0 0.0 0.0 0.0 0.0 0.0 0.0 0.0 0.0
0.0 0.0 0.0 0.0 0.0 0.8 0.0 0.0 0.0 0.0 0.0 0.0 0.0 0.0 0.0 0.0 0.0 0.0 0.0 0.0 0.0 0.0 0.0 0.0 0.0 0.0 0.0 0.0 0.0 0.0 0.0 0.0 0.0 0.0 0.0 0.0 0.0 0.0 0.0 0.0 0.0 0.0 0.0 0.0 0.0 0.0 0.0 0.0 0.0
0.0 0.0 0.0 0.0 0.0 0.4 0.0 0.0 0.0 0.0 0.0 0.0 0.0 0.0 0.0 0.0 0.0 0.0 0.0 0.0 0.0 0.0 0.0 0.0 0.0 0.0 0.0 0.0 0.0 0.0 0.0 0.0 0.0 0.0 0.0 0.0 0.0 0.0 0.0 0.0 0.0 0.0 0.0 0.0 0.0 0.0 0.0 0.0 0.0
0.0 0.0 0.0 0.0 0.2 0.0 0.0 0.0 0.0 0.0 0.0 0.0 0.0 0.0 0.0 0.0 0.0 0.0 0.0 0.0 0.0 0.0 0.0 0.0 0.0 0.0 0.0 0.0 0.0 0.0 0.0 0.0 0.0 0.0 0.0 0.0 0.0 0.0 0.0 0.0 0.0 0.0 0.0 0.0 0.0 0.0 0.0 0.0 0.0
0.0 0.0 0.0 0.4 0.1 0.0 0.0 0.0 0.0 0.0 0.0 0.0 0.0 0.0 0.0 0.0 0.0 0.0 0.0 0.0 0.0 0.0 0.0 0.0 0.0 0.0 0.0 0.0 0.0 0.0 0.0 0.0 0.0 0.0 0.0 0.0 0.0 0.0 0.0 0.0 0.0 0.0 0.0 0.0 0.0 0.0 0.0 0.0 0.0
0.0 0.0 0.6 1.7 0.2 0.0 0.0 0.0 0.0 0.0 0.0 0.0 0.0 0.0 0.0 0.0 0.0 0.0 0.0 0.0 0.0 0.0 0.0 0.0 0.0 0.0 0.0 0.0 0.0 0.0 0.0 0.0 0.0 0.0 0.0 0.0 0.0 0.0 0.0 0.0 0.0 0.0 0.0 0.0 0.0 0.0 0.0 0.0 0.0
0.0 0.1 1.3 0.8 0.3 0.0 0.0 0.0 0.0 0.0 0.0 0.0 0.0 0.0 0.0 0.0 0.0 0.0 0.0 0.0 0.0 0.0 0.0 0.0 0.0 0.0 0.0 0.0 0.0 0.0 0.0 0.0 0.0 0.0 0.0 0.0 0.0 0.0 0.0 0.0 0.0 0.0 0.0 0.0 0.0 0.0 0.0 0.0 0.0
0.0 0.1 1.1 0.7 0.4 0.1 0.0 0.0 0.0 0.0 0.0 0.0 0.0 0.0 0.0 0.0 0.0 0.0 0.0 0.0 0.0 0.0 0.0 0.0 0.0 0.0 0.0 0.0 0.0 0.0 0.0 0.0 0.0 0.0 0.0 0.0 0.0 0.0 0.0 0.0 0.0 0.0 0.0 0.0 0.0 0.0 0.0 0.0 0.0
0.0 0.5 2.8 0.9 0.4 0.1 0.1 0.0 0.0 0.0 0.0 0.1 0.0 0.0 0.0 0.0 0.0 0.0 0.0 0.0 0.0 0.0 0.0 0.0 0.0 0.0 0.0 0.0 0.0 0.0 0.0 0.0 0.0 0.0 0.0 0.0 0.0 0.0 0.0 0.0 0.0 0.0 0.0 0.0 0.0 0.0 0.0 0.0 0.0
0.1 2.2 1.0 0.1 0.0 0.1 0.1 0.1 0.0 0.0 0.0 0.1 0.0 0.0 0.0 0.0 0.0 0.0 0.0 0.0 0.0 0.0 0.0 0.0 0.0 0.0 0.0 0.0 0.0 0.0 0.0 0.0 0.0 0.0 0.0 0.0 0.0 0.0 0.0 0.0 0.0 0.0 0.0 0.0 0.0 0.0 0.0 0.0 0.0
0.4 0.6 0.1 0.2 0.1 0.1 0.1 0.2 0.1 0.0 0.1 0.2 0.2 0.0 0.0 0.0 0.0 0.0 0.0 0.0 0.0 0.0 0.0 0.0 0.0 0.0 0.0 0.0 0.0 0.0 0.0 0.0 0.0 0.0 0.0 0.0 0.0 0.0 0.0 0.0 0.0 0.0 0.0 0.0 0.0 0.0 0.0 0.0 0.0
0.4 0.4 0.1 0.2 0.2 0.1 0.1 0.1 0.2 0.1 0.1 0.2 0.1 0.0 0.0 0.0 0.0 0.0 0.0 0.0 0.0 0.0 0.0 0.0 0.0 0.0 0.0 0.0 0.0 0.0 0.0 0.0 0.0 0.0 0.0 0.0 0.0 0.0 0.0 0.0 0.0 0.0 0.0 0.0 0.0 0.0 0.0 0.0 0.0
0.5 0.3 0.1 0.1 0.2 0.1 0.0 0.1 0.1 0.1 0.0 0.0 0.1 0.1 0.0 0.0 0.0 0.0 0.0 0.0 0.0 0.0 0.0 0.0 0.0 0.0 0.0 0.0 0.0 0.0 0.0 0.0 0.0 0.0 0.0 0.0 0.0 0.0 0.0 0.0 0.0 0.0 0.0 0.0 0.0 0.0 0.0 0.0 0.0
0.6 0.5 0.1 0.1 0.3 0.2 0.3 0.1 0.1 0.1 0.0 0.0 0.1 0.1 0.1 0.1 0.2 0.0 0.0 0.0 0.0 0.0 0.0 0.0 0.0 0.0 0.0 0.0 0.0 0.0 0.0 0.0 0.0 0.0 0.0 0.0 0.0 0.0 0.0 0.0 0.0 0.0 0.0 0.0 0.0 0.0 0.0 0.0 0.0
0.3 0.5 0.4 0.3 0.3 0.3 0.2 0.2 0.2 0.2 0.1 0.1 0.1 0.1 0.2 0.2 0.1 0.1 0.1 0.1 0.1 0.0 0.0 0.0 0.1 0.0 0.0 0.0 0.0 0.0 0.0 0.0 0.0 0.1 0.0 0.0 0.0 0.0 0.0 0.0 0.0 0.0 0.0 0.0 0.0 0.0 0.0 0.0 0.0
0.6 1.3 2.8 1.2 0.3 0.2 1.1 2.8 0.3 0.2 0.1 0.3 0.2 0.2 0.2 0.1 0.2 0.2 0.1 0.1 0.2 0.2 0.1 0.0 0.1 0.1 0.0 0.0 0.0 0.0 0.0 0.0 0.0 0.1 0.0 0.0 0.0 0.0 0.0 0.0 0.0 0.0 0.0 0.0 0.0 0.0 0.0 0.0 0.0
6.2 7.5 4.5 2.0 0.6 0.5 1.5 2.8 0.4 0.2 0.3 0.4 0.3 0.3 0.3 0.2 0.2 0.2 0.1 0.1 0.2 0.2 0.2 0.2 0.1 0.3 0.1 0.1 0.0 0.0 0.0 0.0 0.0 0.0 0.0 0.0 0.0 0.0 0.0 0.0 0.0 0.0 0.0 0.0 0.0 0.1 0.0 0.1 0.0
8.1 5.8 3.7 3.0 1.6 1.2 2.2 1.4 0.5 0.4 0.5 0.4 0.3 0.5 0.5 0.3 0.3 0.3 0.2 0.2 0.2 0.2 0.3 0.4 0.2 0.2 0.4 0.3 0.0 0.1 0.0 0.0 0.1 0.0 0.1 0.0 0.0 0.0 0.0 0.0 0.1 0.0 0.0 0.0 0.0 0.0 0.1 0.0 0.0
4.0 4.5 3.6 2.4 1.5 1.8 2.5 2.0 0.8 0.8 0.7 0.7 0.5 0.5 0.6 0.4 0.3 0.3 0.3 0.2 0.2 0.2 0.3 0.3 0.4 0.3 0.4 0.4 0.2 0.1 0.2 0.1 0.1 0.1 0.2 0.0 0.1 0.0 0.0 0.1 0.1 0.0 0.0 0.0 0.0 0.0 0.1 0.1 0.0
5.0 5.9 4.0 2.6 1.3 2.4 3.5 2.6 1.7 1.2 1.4 1.3 1.1 1.2 0.8 0.4 0.3 0.3 0.3 0.4 0.3 0.3 0.4 0.3 0.4 0.5 0.5 0.5 0.3 0.3 0.4 0.2 0.1 0.1 0.1 0.0 0.1 0.0 0.0 0.0 0.3 0.3 0.0 0.0 0.0 0.1 0.1 0.1 0.1
5.8 5.6 3.9 4.0 2.9 1.8 3.2 5.4 2.8 1.8 1.3 1.3 1.4 1.3 1.2 0.8 0.6 0.4 0.4 0.5 0.4 0.4 0.5 0.5 0.4 0.5 0.6 0.5 0.4 0.3 0.3 0.2 0.1 0.1 0.2 0.0 0.1 0.1 0.2 0.1 0.4 0.3 0.1 0.1 0.1 0.2 0.3 0.1 0.1
7.5 2.5 2.1 3.5 5.4 7.7 6.0 11.3 5.3 2.9 1.9 1.7 2.2 2.5 2.2 1.4 0.9 0.6 0.5 0.4 0.5 0.4 0.4 0.5 0.5 0.5 0.4 0.5 0.5 0.4 0.4 0.4 0.4 0.3 0.3 0.2 0.3 0.3 0.2 0.1 0.3 0.3 0.4 0.3 0.3 0.3 0.4 0.3 0.3
4.4 1.8 2.2 3.4 7.3 9.7 5.7 9.8 7.6 2.8 4.0 3.3 3.2 3.4 3.5 2.4 1.4 1.0 0.7 0.7 0.5 0.4 0.4 0.4 0.5 0.5 0.5 0.4 0.6 0.7 0.7 0.5 0.6 0.5 0.4 0.5 0.3 0.4 0.4 0.3 0.5 0.4 0.2 0.3 0.4 0.2 0.3 0.2 0.2
2.7 2.8 3.3 5.2 11.6 19.3 8.1 8.9 9.0 7.6 7.5 4.7 3.2 3.3 3.3 3.1 2.0 1.5 1.2 0.8 0.6 0.6 0.6 0.4 0.6 0.6 0.6 0.4 0.5 0.7 1.1 0.9 0.8 0.8 0.8 0.5 0.5 0.4 0.3 0.3 0.5 0.5 0.3 0.3 0.3 0.4 0.4 0.3 0.2
5.5 18.4 28.8 30.0 28.6 17.2 4.9 7.1 10.1 7.5 5.6 5.3 4.8 4.4 3.8 3.4 3.3 2.3 2.0 1.6 1.1 1.2 1.2 1.2 1.2 1.4 1.2 1.0 0.9 1.1 1.2 1.2 1.2 1.0 1.1 0.7 0.6 0.5 0.5 0.4 0.4 0.5 0.2 0.2 0.3 0.4 0.5 0.5 0.7
7.9 13.8 22.0 20.6 14.5 8.4 5.4 8.4 9.5 5.4 4.9 4.4 4.5 4.3 3.8 4.0 3.5 3.7 2.7 2.3 1.6 1.5 1.4 1.3 1.4 1.5 1.7 1.3 1.0 0.9 1.0 1.2 1.0 1.0 0.9 0.9 0.6 0.5 0.4 0.5 0.3 0.3 0.3 0.2 0.3 0.5 0.4 0.6 0.6
10.8 12.7 8.8 16.3 12.0 9.2 8.4 7.4 6.1 2.8 2.8 3.3 3.3 3.3 3.9 4.5 4.3 3.8 3.8 3.6 2.5 2.5 1.7 1.6 1.6 1.7 1.7 1.8 0.9 1.0 0.8 1.0 1.0 1.0 1.0 0.7 0.7 0.6 0.4 0.4 0.3 0.2 0.3 0.2 0.2 0.4 0.5 0.5 0.7
5.0 5.9 11.6 20.2 18.0 12.6 8.2 7.4 9.0 6.5 5.4 4.4 3.6 4.1 4.3 4.6 4.9 4.7 4.6 4.9 3.8 2.7 2.5 1.9 1.6 1.6 1.6 1.7 1.9 1.7 1.6 1.1 1.1 0.9 1.0 1.0 0.6 0.6 0.3 0.4 0.4 0.3 0.2 0.2 0.3 0.5 0.5 0.6 0.7
7.2 9.8 13.5 15.8 14.2 14.6 10.8 9.8 8.8 7.3 6.1 5.6 4.9 4.5 5.0 5.2 5.4 5.9 5.6 5.3 4.3 2.6 2.9 2.4 1.9 1.8 1.6 1.5 1.7 1.8 1.8 1.7 1.1 1.1 1.2 0.9 0.9 0.6 0.4 0.5 0.6 0.3 0.3 0.3 0.3 0.5 0.5 0.6 0.7
4.4 7.8 11.7 18.5 14.7 11.2 11.6 10.4 5.2 4.3 4.3 4.6 4.8 4.9 4.8 4.7 4.9 5.3 5.3 5.1 4.6 4.3 3.2 2.4 2.5 2.4 1.8 1.6 1.7 1.7 1.9 1.6 1.7 1.3 1.2 1.1 0.9 0.9 0.8 0.5 0.6 0.4 0.4 0.5 0.4 0.5 0.5 0.6 0.6